Regional Weather Roundup
Issued by NWS Cleveland, OH

Home | Current Version | Previous Version | Graphics & Text | Print | Product List | Glossary On
Versions: 1 2 3 4 5 6 7 8 9 10 11 12 13 14 15 16 17 18 19 20 21 22 23 24 25 26 27 28 29 30 31 32 33 34 35 36 37 38 39 40 41 42 43 44 45 46 47 48 49 50
000
ASUS41 KCLE 021402
RWRCLE
OHIO REGIONAL WEATHER ROUNDUP
NATIONAL WEATHER SERVICE CLEVELAND, OH
900 AM EST FRI DEC 02 2016

NOTE: "FAIR" INDICATES FEW OR NO CLOUDS BELOW 12,000 FEET WITH NO
SIGNIFICANT WEATHER AND/OR OBSTRUCTIONS TO VISIBILITY.

OHZ001>008-015>018-024>027-034-035-043-044-021500-
   NORTHWEST OHIO

CITY           SKY/WX    TMP DP  RH WIND       PRES   REMARKS
DEFIANCE       CLOUDY    38  32  79 SW10G17   30.09R
FINDLAY        CLOUDY    38  30  73 SW14      30.08R
TOLEDO EXPRESS CLOUDY    37  33  85 W17       30.06R
TOLEDO EXEC    CLOUDY    38  34  85 W13       30.07R
LIMA           CLOUDY    35  33  92 W14       30.11R WCI  26
$$

OHZ009>014-019>023-028>033-038-089-021500-
   NORTHEAST OHIO

CITY           SKY/WX    TMP DP  RH WIND       PRES   REMARKS
CLE-HOPKINS    CLOUDY    39  30  70 SW13      30.06R
CLE-LAKEFRONT  CLOUDY    39  31  72 SW18      30.03R
CUY CO. ARPT   CLOUDY    39  32  75 W14       30.02R
LORAIN-ELYRIA  CLOUDY    37  29  72 W16       30.05R
ASHTABULA      MIX PCPN  36  33  89 SW12      29.99S
AKRON-CANTON   CLOUDY    37  28  70 W12       30.05R
WOOSTER        CLOUDY    36  29  75 W13       30.06R
MANSFIELD      CLOUDY    35  29  78 SW14G25   30.06R WCI  26
YOUNGSTOWN     CLOUDY    37  29  72 SW12      30.01R
$$

OHZ042-051>053-060>062-070>072-077>081-021500-
  SOUTHWEST OHIO

CITY           SKY/WX    TMP DP  RH WIND       PRES   REMARKS
CINC-COVINGTON CLOUDY    37  29  72 NW13      30.17R
CINC-LUNKEN    CLOUDY    38  30  73 W12       30.19R
HAMILTON       CLOUDY    38  28  67 W7        30.18R
DAYTON         CLOUDY    34  32  92 SW12      30.14F WCI  25
WRIGHT-PAT AFB NOT AVBL
DAYTON GENERAL CLOUDY    36  28  73 W6        30.14R
WILMINGTON     CLOUDY    35  29  78 W12       30.14R WCI  27
$$

OHZ036-037-039>041-045>050-054>059-063>069-073>076-082>088-021500-
  CENTRAL AND SOUTHEAST OHIO

CITY           SKY/WX    TMP DP  RH WIND       PRES   REMARKS
COLUMBUS       CLOUDY    36  31  82 W13       30.13R
OSU AIRPORT    CLOUDY    36  31  82 W9        30.13R
BOLTON FIELD   CLOUDY    34  32  93 W7        30.14R WCI  28
RICKENBACK AFB LGT RAIN  35  32  89 NW7       30.14S WCI  29
NEWARK         CLOUDY    37  29  72 W13G21    30.12R
MARION         CLOUDY    36  30  79 W10       30.10R
LANCASTER      CLOUDY    37  31  78 NW10      30.14R
ZANESVILLE     CLOUDY    37  30  75 W8        30.12R
NEW PHILLY     CLOUDY    37  29  72 W9        30.10R
$$




USA.gov is the U.S. government's official web portal to all federal, state and local government web resources and services.